JA0QEV-13 Weather Reports


Display with metric or nautical units.
time (UTC)temp
F
wind
direction
speed
MPH
gust
MPH
rain 1hr
in
rain 24hr
in
rain mn
in
humidity
%
barometer
mb
20260508220339 54 179 12.0 26.0 0.04 0.23 0.04 85 1012.8
20260508215825 53 82 8.0 26.0 0.04 0.23 0.04 86 1012.4
20260508215334 53 120 9.0 21.0 0.04 0.23 0.04 88 1012.2
20260508214824 53 104 11.0 29.0 0.04 0.23 0.04 89 1012.0
20260508214335 53 80 12.0 40.0 0.04 0.23 0.04 90 1011.6
20260508213826 53 101 21.0 40.0 0.03 0.22 0.03 89 1011.5
20260508213334 53 100 18.0 29.0 0.02 0.21 0.02 86 1011.0
20260508212844 54 82 19.0 36.0 0.00 0.19 0.00 82 1010.8
20260508212355 55 116 20.0 36.0 0.00 0.19 0.00 78 1010.5
20260508211824 56 86 14.0 24.0 0.00 0.19 0.00 75 1010.4
20260508211336 56 87 15.0 24.0 0.00 0.19 0.00 74 1010.0
20260508210826 56 84 12.0 23.0 0.00 0.19 0.00 73 1009.9
20260508210316 55 82 13.0 23.0 0.00 0.19 0.00 73 1009.6
20260508205822 55 82 13.0 22.0 0.00 0.19 0.00 73 1009.5
20260508205333 55 79 11.0 27.0 0.00 0.19 0.00 73 1009.4
20260508204824 55 97 15.0 27.0 0.00 0.19 0.00 73 1009.0
20260508204333 55 64 14.0 25.0 0.00 0.19 0.00 73 1009.1
20260508203821 55 79 11.0 25.0 0.00 0.19 0.00 73 1009.0
20260508203330 55 81 10.0 26.0 0.00 0.19 0.00 72 1008.9
20260508202822 55 84 11.0 26.0 0.00 0.19 0.00 71 1008.7
20260508202333 56 55 13.0 24.0 0.00 0.19 0.00 69 1008.5
20260508201824 56 84 13.0 26.0 0.00 0.19 0.00 68 1008.3
20260508201332 56 98 15.0 30.0 0.00 0.19 0.00 68 1008.2
20260508200824 56 77 16.0 30.0 0.00 0.19 0.00 68 1008.2
20260508195818 56 80 18.0 32.0 0.00 0.19 0.00 66 1007.8
20260508195329 56 90 16.0 25.0 0.00 0.19 0.00 64 1007.7
20260508194820 56 34 10.0 27.0 0.00 0.19 0.00 64 1007.4
20260508194331 56 91 13.0 27.0 0.00 0.19 0.00 63 1007.4
20260508193842 56 95 12.0 37.0 0.00 0.19 0.00 63 1007.1
20260508193336 56 109 10.0 19.0 0.00 0.19 0.00 64 1007.0
20260508192822 56 105 7.0 24.0 0.00 0.19 0.00 64 1006.9
20260508192333 56 101 12.0 30.0 0.00 0.19 0.00 64 1006.8
20260508191824 56 117 16.0 30.0 0.00 0.19 0.00 64 1006.6
20260508191335 56 98 11.0 23.0 0.00 0.19 0.00 65 1006.4
20260508190826 56 101 11.0 28.0 0.00 0.19 0.00 65 1006.2
20260508190337 56 81 16.0 28.0 0.00 0.19 0.00 64 1006.3
20260508185819 56 120 15.0 27.0 0.00 0.19 0.00 64 1006.3
20260508185330 56 108 9.0 22.0 0.00 0.19 0.00 65 1006.0
20260508184825 56 82 15.0 24.0 0.00 0.19 0.00 64 1006.0
20260508184354 56 94 14.0 24.0 0.00 0.19 0.00 64 1006.0
20260508183824 56 82 15.0 23.0 0.00 0.19 0.00 63 1006.0
20260508183334 56 116 11.0 18.0 0.00 0.19 0.00 65 1005.9
20260508182842 56 124 10.0 20.0 0.00 0.19 0.00 65 1005.8
20260508182327 56 97 11.0 22.0 0.00 0.19 0.00 65 1005.6
20260508181818 56 110 14.0 22.0 0.00 0.19 0.00 64 1005.7
20260508181349 56 106 13.0 22.0 0.00 0.19 0.00 66 1005.6
20260508180838 56 92 13.0 24.0 0.00 0.19 0.00 66 1005.3
20260508180328 55 84 16.0 28.0 0.00 0.19 0.00 66 1005.4
20260508175835 55 80 15.0 26.0 0.00 0.19 0.00 67 1005.2
20260508175324 55 96 14.0 26.0 0.00 0.19 0.00 68 1005.4
20260508174834 55 112 16.0 33.0 0.00 0.19 0.00 67 1005.2
20260508174344 56 84 16.0 38.0 0.00 0.19 0.00 65 1005.3
20260508173853 58 113 19.0 28.0 0.00 0.19 0.00 59 1005.3
20260508173326 57 92 14.0 23.0 0.00 0.19 0.00 55 1005.0
20260508172833 56 117 2.0 9.0 0.00 0.19 0.00 56 1005.0
20260508172344 56 67 3.0 7.0 0.00 0.19 0.00 55 1004.7
20260508171834 57 129 1.0 3.0 0.00 0.19 0.00 54 1004.8
20260508171325 57 105 1.0 8.0 0.00 0.19 0.00 53 1004.9
20260508170834 58 147 0.0 10.0 0.00 0.19 0.00 53 1004.8
20260508170326 57 165 1.0 7.0 0.00 0.19 0.00 53 1005.0
20260508165851 57 153 1.0 3.0 0.00 0.19 0.00 53 1004.9
20260508165339 57 143 1.0 4.0 0.00 0.19 0.00 52 1005.1
20260508164826 57 146 1.0 4.0 0.00 0.19 0.00 51 1005.1
20260508164336 57 136 1.0 3.0 0.00 0.19 0.00 51 1005.2
20260508163825 57 173 1.0 4.0 0.00 0.19 0.00 51 1005.1
20260508163335 57 157 2.0 5.0 0.00 0.19 0.00 50 1005.2
20260508162820 57 108 2.0 5.0 0.00 0.19 0.00 50 1005.1
20260508162329 57 205 0.0 3.0 0.00 0.19 0.00 50 1005.2
20260508161824 57 103 1.0 3.0 0.00 0.19 0.00 50 1005.4
20260508161332 58 164 0.0 8.0 0.00 0.19 0.00 49 1005.6
20260508160843 59 90 4.0 9.0 0.00 0.19 0.00 44 1005.7
20260508160332 59 98 5.0 9.0 0.00 0.19 0.00 44 1005.7
20260508155819 58 120 1.0 4.0 0.00 0.19 0.00 44 1005.8
20260508155330 59 124 0.0 4.0 0.00 0.19 0.00 41 1005.9
20260508154819 59 115 1.0 5.0 0.00 0.19 0.00 43 1005.9
20260508154328 58 51 2.0 5.0 0.00 0.19 0.00 44 1006.0
20260508153837 59 70 1.0 8.0 0.00 0.19 0.00 45 1006.1
20260508153326 59 136 3.0 8.0 0.00 0.19 0.00 45 1006.3
20260508152831 59 128 4.0 12.0 0.00 0.19 0.00 45 1006.5
20260508152401 59 117 3.0 14.0 0.00 0.19 0.00 45 1006.5
20260508151827 60 96 8.0 14.0 0.00 0.19 0.00 43 1006.5
20260508151318 60 107 8.0 14.0 0.00 0.19 0.00 41 1006.7
20260508150829 60 89 8.0 14.0 0.00 0.19 0.00 40 1006.7
20260508150322 60 89 8.0 14.0 0.00 0.19 0.00 40 1006.7
20260508145849 60 89 8.0 21.0 0.00 0.19 0.19 40 1006.8
20260508145319 60 75 10.0 16.0 0.00 0.19 0.19 40 1006.9
20260508144850 60 97 9.0 16.0 0.00 0.19 0.19 41 1007.0
20260508144318 60 96 10.0 16.0 0.00 0.19 0.19 45 1006.9
20260508143829 60 98 10.0 19.0 0.00 0.19 0.19 45 1006.9
20260508143340 60 88 12.0 26.0 0.00 0.19 0.19 45 1007.0
20260508142823 60 101 14.0 29.0 0.00 0.19 0.19 45 1006.7
20260508142334 59 84 14.0 29.0 0.00 0.19 0.19 46 1006.6
20260508141824 59 72 9.0 20.0 0.00 0.19 0.19 49 1006.2
20260508141354 59 85 7.0 18.0 0.00 0.19 0.19 51 1006.3
20260508140842 59 90 4.0 10.0 0.00 0.19 0.19 52 1006.3
20260508140331 58 46 4.0 21.0 0.00 0.19 0.19 53 1006.2
20260508135822 59 68 5.0 21.0 0.00 0.19 0.19 53 1006.2
20260508135353 58 105 5.0 10.0 0.00 0.19 0.19 58 1006.1
20260508134821 58 110 3.0 9.0 0.00 0.19 0.19 60 1005.9
20260508134330 58 66 4.0 9.0 0.00 0.19 0.19 59 1006.0
20260508133819 58 108 3.0 11.0 0.00 0.19 0.19 63 1006.0
20260508133328 58 103 3.0 7.0 0.00 0.19 0.19 63 1005.9
20260508132835 58 99 1.0 9.0 0.00 0.19 0.19 63 1006.0
20260508132325 59 99 1.0 16.0 0.00 0.19 0.19 64 1006.0
20260508131835 59 88 9.0 16.0 0.00 0.19 0.19 63 1006.1
20260508131326 59 87 8.0 12.0 0.00 0.19 0.19 66 1006.3
20260508130835 59 122 3.0 20.0 0.00 0.19 0.19 66 1006.3
20260508130326 59 80 12.0 20.0 0.00 0.19 0.19 66 1006.2
20260508125833 59 32 8.0 17.0 0.00 0.19 0.19 68 1006.3
20260508125328 59 88 6.0 15.0 0.00 0.19 0.19 69 1006.2
20260508124818 59 106 5.0 13.0 0.00 0.19 0.19 70 1006.2
20260508124328 58 92 7.0 13.0 0.00 0.19 0.19 71 1006.2
20260508123817 58 103 3.0 8.0 0.00 0.19 0.19 72 1006.1
20260508123328 59 118 2.0 10.0 0.00 0.19 0.19 72 1006.2
20260508122835 59 123 2.0 14.0 0.00 0.19 0.19 71 1006.3
20260508122326 59 91 8.0 14.0 0.00 0.19 0.19 71 1006.3
20260508121817 59 191 4.0 19.0 0.00 0.19 0.19 71 1006.4
20260508121327 59 109 11.0 19.0 0.00 0.19 0.19 69 1006.5
20260508120835 59 94 7.0 16.0 0.00 0.19 0.19 71 1006.5
20260508120324 59 78 7.0 21.0 0.00 0.19 0.19 71 1006.4
20260508115829 59 90 14.0 21.0 0.00 0.19 0.19 68 1006.4
20260508115324 59 113 9.0 21.0 0.00 0.19 0.19 69 1006.6
20260508114835 59 96 8.0 21.0 0.00 0.19 0.19 70 1006.5
20260508114326 59 82 10.0 21.0 0.00 0.19 0.19 69 1006.3
20260508113836 59 114 11.0 20.0 0.00 0.19 0.19 71 1006.3
20260508113326 59 92 9.0 23.0 0.00 0.19 0.19 73 1006.3
20260508112833 59 91 10.0 23.0 0.00 0.19 0.19 73 1006.2
20260508112320 59 113 12.0 21.0 0.00 0.19 0.19 75 1006.2
20260508111830 59 100 12.0 18.0 0.00 0.19 0.19 75 1006.2
20260508111320 59 88 11.0 21.0 0.00 0.19 0.19 75 1006.1
20260508110851 59 105 14.0 22.0 0.00 0.19 0.19 75 1006.0
20260508110321 59 111 10.0 22.0 0.00 0.19 0.19 76 1005.8
20260508105832 59 79 11.0 20.0 0.00 0.19 0.19 74 1005.9
20260508105321 59 101 12.0 18.0 0.00 0.19 0.19 74 1006.0
20260508104831 59 85 7.0 18.0 0.00 0.19 0.19 77 1006.1
20260508104322 59 102 9.0 18.0 0.00 0.19 0.19 77 1006.0
20260508103853 59 131 6.0 12.0 0.00 0.19 0.19 80 1006.0
20260508103342 59 111 7.0 15.0 0.00 0.19 0.19 81 1006.0
20260508102828 59 95 6.0 17.0 0.00 0.19 0.19 82 1005.8
20260508102317 59 79 6.0 20.0 0.00 0.19 0.19 82 1005.7
20260508101827 59 134 8.0 20.0 0.01 0.19 0.19 82 1005.8
20260508101318 59 117 10.0 21.0 0.01 0.19 0.19 82 1005.7
20260508100828 59 86 9.0 21.0 0.02 0.19 0.19 82 1005.6
20260508100323 58 85 9.0 17.0 0.03 0.19 0.19 83 1005.6
20260508095831 59 114 8.0 25.0 0.03 0.19 0.19 83 1005.6
20260508095323 59 74 12.0 25.0 0.05 0.19 0.19 82 1005.5
20260508094834 59 116 16.0 24.0 0.06 0.19 0.19 82 1005.6
20260508094343 59 77 11.0 21.0 0.07 0.19 0.19 85 1005.4
20260508093831 58 92 9.0 19.0 0.07 0.19 0.19 87 1005.2
20260508093322 59 85 10.0 24.0 0.07 0.19 0.19 88 1005.1
20260508092829 59 96 11.0 24.0 0.08 0.19 0.19 88 1005.0
20260508092319 59 72 9.0 15.0 0.08 0.19 0.19 90 1004.8
20260508091830 59 127 4.0 8.0 0.07 0.18 0.18 92 1004.6
20260508091324 59 123 2.0 9.0 0.07 0.18 0.18 92 1004.6
20260508090835 59 105 2.0 10.0 0.07 0.17 0.17 92 1004.6
20260508090344 59 132 3.0 6.0 0.07 0.16 0.16 92 1004.6
20260508085827 59 110 3.0 5.0 0.07 0.16 0.16 92 1004.4
20260508085357 59 131 2.0 7.0 0.07 0.14 0.14 91 1004.2
20260508084826 59 176 1.0 4.0 0.06 0.13 0.13 91 1003.9
20260508084336 59 181 1.0 4.0 0.07 0.12 0.12 90 1004.0
20260508083825 59 157 1.0 6.0 0.08 0.12 0.12 90 1003.9
20260508083333 59 163 2.0 9.0 0.10 0.12 0.12 90 1004.0
20260508082820 60 192 3.0 9.0 0.11 0.11 0.11 89 1003.9
20260508082350 60 122 2.0 7.0 0.11 0.11 0.11 89 1004.0
20260508081819 60 150 2.0 7.0 0.11 0.11 0.11 88 1003.8
20260508081329 60 129 1.0 8.0 0.11 0.11 0.11 87 1004.0
20260508080824 60 139 4.0 8.0 0.10 0.10 0.10 87 1003.8
20260508080335 61 104 1.0 5.0 0.09 0.09 0.09 88 1004.0
20260508075841 61 114 1.0 4.0 0.08 0.08 0.08 89 1003.7
20260508075330 61 148 1.0 12.0 0.07 0.07 0.07 89 1003.9
20260508074821 61 108 2.0 12.0 0.07 0.07 0.07 89 1003.9
20260508074331 61 98 3.0 17.0 0.05 0.05 0.05 89 1003.6
20260508073821 62 91 6.0 20.0 0.04 0.04 0.04 87 1003.4
20260508073329 63 89 10.0 20.0 0.02 0.02 0.02 85 1003.5
20260508072856 64 107 8.0 18.0 0.00 0.00 0.00 82 1003.4
20260508072323 64 91 11.0 18.0 0.00 0.00 0.00 80 1003.1
20260508071831 65 136 6.0 13.0 0.00 0.00 0.00 81 1003.0
20260508071321 65 103 5.0 16.0 0.00 0.00 0.00 80 1002.9
20260508070832 65 134 8.0 16.0 0.00 0.00 0.00 79 1002.9
20260508070327 65 109 6.0 10.0 0.00 0.00 0.00 79 1003.0
20260508065835 66 113 4.0 21.0 0.00 0.00 0.00 78 1002.9
20260508065323 66 141 7.0 21.0 0.00 0.00 0.00 76 1002.8
20260508064834 66 86 3.0 12.0 0.00 0.00 0.00 75 1002.8
20260508064326 66 146 2.0 5.0 0.00 0.00 0.00 75 1002.6
20260508063834 67 130 1.0 7.0 0.00 0.00 0.00 74 1002.6
20260508063323 67 127 2.0 12.0 0.00 0.00 0.00 74 1002.7
20260508062829 67 94 6.0 12.0 0.00 0.00 0.00 74 1002.6
20260508062317 67 79 7.0 17.0 0.00 0.00 0.00 74 1002.6
20260508061828 67 81 10.0 17.0 0.00 0.00 0.00 74 1002.6
20260508061319 67 113 6.0 14.0 0.00 0.00 0.00 74 1002.6
20260508060850 67 91 8.0 14.0 0.00 0.00 0.00 74 1002.6
20260508060317 68 103 9.0 16.0 0.00 0.00 0.00 73 1002.6
20260508055822 68 81 8.0 12.0 0.00 0.00 0.00 74 1002.5
20260508055336 68 98 4.0 12.0 0.00 0.00 0.00 73 1002.5
20260508054828 68 94 3.0 13.0 0.00 0.00 0.00 73 1002.5
20260508054318 68 141 5.0 15.0 0.00 0.00 0.00 73 1002.5
20260508053827 68 91 7.0 15.0 0.00 0.00 0.00 72 1002.6
20260508053335 69 97 3.0 11.0 0.00 0.00 0.00 73 1002.5
20260508052820 68 106 4.0 11.0 0.00 0.00 0.00 73 1002.4
20260508052331 68 146 2.0 8.0 0.00 0.00 0.00 74 1002.4
20260508051819 68 136 3.0 8.0 0.00 0.00 0.00 74 1002.6
20260508051330 68 104 2.0 6.0 0.00 0.00 0.00 75 1002.7
20260508050821 68 158 2.0 9.0 0.00 0.00 0.00 76 1002.9
20260508050331 68 130 2.0 9.0 0.00 0.00 0.00 75 1002.7
20260508045823 68 164 2.0 9.0 0.00 0.00 0.00 75 1003.0
20260508045333 68 151 4.0 12.0 0.00 0.00 0.00 74 1003.3
20260508044823 68 109 4.0 12.0 0.00 0.00 0.00 74 1003.2
20260508044334 68 150 2.0 9.0 0.00 0.00 0.00 74 1002.8
20260508043825 68 91 3.0 12.0 0.00 0.00 0.00 74 1003.1
20260508043335 68 174 6.0 16.0 0.00 0.00 0.00 73 1003.2
20260508042821 68 86 4.0 16.0 0.00 0.00 0.00 75 1003.3
20260508042331 68 79 3.0 9.0 0.00 0.00 0.00 76 1003.4
20260508041841 67 186 4.0 9.0 0.00 0.00 0.00 77 1003.4
20260508041331 67 81 1.0 9.0 0.00 0.00 0.00 78 1003.5
20260508040842 66 103 3.0 14.0 0.00 0.00 0.00 79 1003.7
20260508040335 66 112 4.0 14.0 0.00 0.00 0.00 79 1003.9
20260508035822 66 144 3.0 11.0 0.00 0.00 0.00 79 1003.8
20260508035333 66 75 5.0 11.0 0.00 0.00 0.00 80 1003.9
20260508034822 66 97 3.0 12.0 0.00 0.00 0.00 80 1003.9
20260508034330 66 96 7.0 23.0 0.00 0.00 0.00 79 1003.9
20260508033821 66 107 7.0 14.0 0.00 0.00 0.00 78 1004.3
20260508033352 67 94 5.0 14.0 0.00 0.00 0.00 78 1004.2
20260508032835 67 102 3.0 8.0 0.00 0.00 0.00 77 1004.2
20260508032323 67 122 2.0 8.0 0.00 0.00 0.00 76 1004.2
20260508031831 68 124 3.0 12.0 0.00 0.00 0.00 74 1004.4
20260508031319 68 80 5.0 15.0 0.00 0.00 0.00 73 1004.4
20260508030829 69 99 3.0 7.0 0.00 0.00 0.00 71 1004.2
20260508030319 69 132 4.0 7.0 0.00 0.00 0.00 68 1004.4
20260508025825 69 117 1.0 5.0 0.00 0.00 0.00 67 1004.5
20260508025334 69 171 3.0 7.0 0.00 0.00 0.00 67 1004.3
20260508024824 70 141 3.0 8.0 0.00 0.00 0.00 66 1004.5
20260508024318 70 162 4.0 8.0 0.00 0.00 0.00 67 1004.4
20260508023828 70 153 1.0 9.0 0.00 0.00 0.00 68 1004.4
20260508023319 70 116 4.0 9.0 0.00 0.00 0.00 69 1004.5
20260508022827 71 105 3.0 11.0 0.00 0.00 0.00 66 1004.4
20260508022318 70 238 2.0 10.0 0.00 0.00 0.00 68 1004.5
20260508021849 70 165 3.0 8.0 0.00 0.00 0.00 67 1004.4
20260508021318 71 146 3.0 12.0 0.00 0.00 0.00 64 1004.5
20260508020828 72 100 4.0 9.0 0.00 0.00 0.00 62 1004.6
20260508020319 73 118 4.0 10.0 0.00 0.00 0.00 59 1004.5
20260508015825 74 110 6.0 12.0 0.00 0.00 0.00 61 1004.4
20260508015320 74 156 4.0 12.0 0.00 0.00 0.00 64 1004.2
20260508014851 75 95 4.0 10.0 0.00 0.00 0.00 64 1004.0
20260508014320 75 96 4.0 9.0 0.00 0.00 0.00 63 1004.1
20260508013829 76 100 3.0 6.0 0.00 0.00 0.00 61 1004.0
20260508013318 75 169 1.0 5.0 0.00 0.00 0.00 57 1003.9
20260508012845 75 158 3.0 4.0 0.00 0.00 0.00 56 1003.9
20260508012333 74 184 3.0 6.0 0.00 0.00 0.00 54 1003.9
20260508011823 74 178 4.0 6.0 0.00 0.00 0.00 54 1003.9
20260508011354 75 184 3.0 5.0 0.00 0.00 0.00 54 1004.0
20260508010824 75 216 2.0 4.0 0.00 0.00 0.00 57 1004.0
20260508010354 75 131 1.0 4.0 0.00 0.00 0.00 57 1004.0
20260508005820 76 129 1.0 5.0 0.00 0.00 0.00 57 1004.0
20260508005329 75 144 2.0 5.0 0.00 0.00 0.00 58 1004.0
20260508004839 74 102 2.0 4.0 0.00 0.00 0.00 64 1003.9
20260508004328 73 96 1.0 3.0 0.00 0.00 0.00 64 1004.0
20260508003819 73 126 0.0 2.0 0.00 0.00 0.00 65 1003.9
20260508003328 72 144 1.0 2.0 0.00 0.00 0.00 66 1004.1
20260508002819 71 275 1.0 2.0 0.00 0.00 0.00 66 1004.3
20260508002330 71 163 1.0 3.0 0.00 0.00 0.00 67 1004.4
20260508001821 71 198 1.0 3.0 0.00 0.00 0.00 64 1004.3
20260508001332 71 149 0.0 1.0 0.00 0.00 0.00 66 1004.6
20260508000842 71 127 0.0 3.0 0.00 0.00 0.00 67 1004.9
20260508000329 70 158 1.0 4.0 0.00 0.00 0.00 68 1004.8
20260507235855 70 186 1.0 5.0 0.00 0.00 0.00 68 1004.7
20260507235322 70 277 3.0 5.0 0.00 0.00 0.00 69 1004.8
20260507234831 69 136 1.0 2.0 0.00 0.00 0.00 71 1004.9
20260507234319 68 231 1.0 2.0 0.00 0.00 0.00 74 1004.9
20260507233827 67 233 0.0 2.0 0.00 0.00 0.00 76 1004.9
20260507233334 66 233 1.0 3.0 0.00 0.00 0.00 77 1004.9
20260507232818 66 219 1.0 3.0 0.00 0.00 0.00 77 1005.0
20260507232329 66 192 1.0 2.0 0.00 0.00 0.00 77 1004.9
20260507231820 66 164 0.0 0.0 0.00 0.00 0.00 77 1005.1
20260507231335 66 165 0.0 0.0 0.00 0.00 0.00 77 1005.0
20260507230846 66 165 0.0 0.0 0.00 0.00 0.00 77 1005.2
20260507230334 65 165 0.0 2.0 0.00 0.00 0.00 76 1005.4
20260507225820 65 91 1.0 2.0 0.00 0.00 0.00 76 1005.6
20260507225331 65 106 0.0 2.0 0.00 0.00 0.00 76 1005.6
20260507224819 65 106 0.0 3.0 0.00 0.00 0.00 77 1005.5
20260507224349 65 169 0.0 3.0 0.00 0.00 0.00 76 1005.5
20260507223838 65 102 0.0 1.0 0.00 0.00 0.00 76 1005.7
20260507223348 65 102 0.0 2.0 0.00 0.00 0.00 77 1005.8
20260507222834 64 102 0.0 2.0 0.00 0.00 0.00 77 1005.8
20260507222325 64 103 0.0 1.0 0.00 0.00 0.00 78 1005.9
20260507221836 64 103 0.0 1.0 0.00 0.00 0.00 79 1005.9
20260507221347 63 103 0.0 3.0 0.00 0.00 0.00 80 1005.9
20260507220857 64 102 2.0 3.0 0.00 0.00 0.00 81 1006.0